Year,Month,Day,Hour,Minute,Value (Times are PST for temperature in C)
2015,05,20,00,00,17.00
2015,05,20,00,01,16.90
2015,05,20,00,02,16.70
2015,05,20,00,03,16.60
2015,05,20,00,04,16.50
2015,05,20,00,05,16.40
2015,05,20,00,06,16.30
2015,05,20,00,07,16.20
2015,05,20,00,08,16.10
2015,05,20,00,09,16.00
2015,05,20,00,10,15.90
2015,05,20,00,11,15.80
2015,05,20,00,12,15.80
2015,05,20,00,13,15.70
2015,05,20,00,14,15.70
2015,05,20,00,15,15.60
2015,05,20,00,16,15.50
2015,05,20,00,17,15.50
2015,05,20,00,18,15.40
2015,05,20,00,19,15.40
2015,05,20,00,20,15.30
2015,05,20,00,21,15.30
2015,05,20,00,22,15.30
2015,05,20,00,23,15.30
2015,05,20,00,24,15.20
2015,05,20,00,25,15.20
2015,05,20,00,26,15.10
2015,05,20,00,27,15.10
2015,05,20,00,28,15.10
2015,05,20,00,29,15.00
2015,05,20,00,30,15.00
2015,05,20,00,31,14.90
2015,05,20,00,32,14.90
2015,05,20,00,33,14.90
2015,05,20,00,34,14.90
2015,05,20,00,35,14.80
2015,05,20,00,36,14.80
2015,05,20,00,37,14.80
2015,05,20,00,38,14.80
2015,05,20,00,39,14.80
2015,05,20,00,40,14.70
2015,05,20,00,41,14.70
2015,05,20,00,42,14.70
2015,05,20,00,43,14.60
2015,05,20,00,44,14.60
2015,05,20,00,45,14.60
2015,05,20,00,46,14.60
2015,05,20,00,47,14.60
2015,05,20,00,48,14.60
2015,05,20,00,49,14.60
2015,05,20,00,50,14.60
2015,05,20,00,51,14.50
2015,05,20,00,52,14.50
2015,05,20,00,53,14.50
2015,05,20,00,54,14.50
2015,05,20,00,55,14.40
2015,05,20,00,56,14.40
2015,05,20,00,57,14.40
2015,05,20,00,58,14.40
2015,05,20,00,59,14.40
2015,05,20,01,00,14.40
2015,05,20,01,01,14.30
2015,05,20,01,02,14.30
2015,05,20,01,03,14.30
2015,05,20,01,04,14.30
2015,05,20,01,05,14.30
2015,05,20,01,06,14.30
2015,05,20,01,07,14.20
2015,05,20,01,08,14.20
2015,05,20,01,09,14.20
2015,05,20,01,10,14.20
2015,05,20,01,11,14.20
2015,05,20,01,12,14.20
2015,05,20,01,13,14.20
2015,05,20,01,14,14.30
2015,05,20,01,15,14.30
2015,05,20,01,16,14.30
2015,05,20,01,17,14.30
2015,05,20,01,18,14.30
2015,05,20,01,19,14.30
2015,05,20,01,20,14.30
2015,05,20,01,21,14.30
2015,05,20,01,22,14.30
2015,05,20,01,23,14.30
2015,05,20,01,24,14.30
2015,05,20,01,25,14.30
2015,05,20,01,26,14.40
2015,05,20,01,27,14.40
2015,05,20,01,28,14.40
2015,05,20,01,29,14.40
2015,05,20,01,30,14.40
2015,05,20,01,31,14.40
2015,05,20,01,32,14.40
2015,05,20,01,33,14.40
2015,05,20,01,34,14.40
2015,05,20,01,35,14.40
2015,05,20,01,36,14.40
2015,05,20,01,37,14.40
2015,05,20,01,38,14.40
2015,05,20,01,39,14.30
2015,05,20,01,40,14.30
2015,05,20,01,41,14.30
2015,05,20,01,42,14.30
2015,05,20,01,43,14.30
2015,05,20,01,44,14.30
2015,05,20,01,45,14.30
2015,05,20,01,46,14.30
2015,05,20,01,47,14.30
2015,05,20,01,48,14.30
2015,05,20,01,49,14.30
2015,05,20,01,50,14.20
2015,05,20,01,51,14.30
2015,05,20,01,52,14.30
2015,05,20,01,53,14.30
2015,05,20,01,54,14.30
2015,05,20,01,55,14.30
2015,05,20,01,56,14.30
2015,05,20,01,57,14.30
2015,05,20,01,58,14.30
2015,05,20,01,59,14.30
2015,05,20,02,00,14.30
2015,05,20,02,01,14.30
2015,05,20,02,02,14.40
2015,05,20,02,03,14.40
2015,05,20,02,04,14.40
2015,05,20,02,05,14.40
2015,05,20,02,06,14.40
2015,05,20,02,07,14.40
2015,05,20,02,08,14.40
2015,05,20,02,09,14.40
2015,05,20,02,10,14.40
2015,05,20,02,11,14.40
2015,05,20,02,12,14.30
2015,05,20,02,13,14.30
2015,05,20,02,14,14.30
2015,05,20,02,15,14.30
2015,05,20,02,16,14.30
2015,05,20,02,17,14.20
2015,05,20,02,18,14.20
2015,05,20,02,19,14.20
2015,05,20,02,20,14.10
2015,05,20,02,21,14.10
2015,05,20,02,22,14.10
2015,05,20,02,23,14.10
2015,05,20,02,24,14.00
2015,05,20,02,25,14.00
2015,05,20,02,26,13.90
2015,05,20,02,27,13.90
2015,05,20,02,28,13.90
2015,05,20,02,29,13.80
2015,05,20,02,30,13.80
2015,05,20,02,31,13.80
2015,05,20,02,32,13.80
2015,05,20,02,33,13.70
2015,05,20,02,34,13.70
2015,05,20,02,35,13.70
2015,05,20,02,36,13.60
2015,05,20,02,37,13.60
2015,05,20,02,38,13.60
2015,05,20,02,39,13.50
2015,05,20,02,40,13.50
2015,05,20,02,41,13.40
2015,05,20,02,42,13.40
2015,05,20,02,43,13.30
2015,05,20,02,44,13.30
2015,05,20,02,45,13.20
2015,05,20,02,46,13.20
2015,05,20,02,47,13.10
2015,05,20,02,48,13.10
2015,05,20,02,49,13.00
2015,05,20,02,50,13.00
2015,05,20,02,51,12.90
2015,05,20,02,52,12.90
2015,05,20,02,53,12.80
2015,05,20,02,54,12.80
2015,05,20,02,55,12.80
2015,05,20,02,56,12.80
2015,05,20,02,57,12.70
2015,05,20,02,58,12.70
2015,05,20,02,59,12.70
2015,05,20,03,00,12.70
2015,05,20,03,01,12.70
2015,05,20,03,02,12.60
2015,05,20,03,03,12.60
2015,05,20,03,04,12.60
2015,05,20,03,05,12.60
2015,05,20,03,06,12.50
2015,05,20,03,07,12.50
2015,05,20,03,08,12.50
2015,05,20,03,09,12.40
2015,05,20,03,10,12.40
2015,05,20,03,11,12.40
2015,05,20,03,12,12.40
2015,05,20,03,13,12.30
2015,05,20,03,14,12.30
2015,05,20,03,15,12.30
2015,05,20,03,16,12.30
2015,05,20,03,17,12.30
2015,05,20,03,18,12.30
2015,05,20,03,19,12.30
2015,05,20,03,20,12.20
2015,05,20,03,21,12.20
2015,05,20,03,22,12.20
2015,05,20,03,23,12.20
2015,05,20,03,24,12.20
2015,05,20,03,25,12.20
2015,05,20,03,26,12.20
2015,05,20,03,27,12.10
2015,05,20,03,28,12.10
2015,05,20,03,29,12.10
2015,05,20,03,30,12.10
2015,05,20,03,31,12.10
2015,05,20,03,32,12.00
2015,05,20,03,33,12.00
2015,05,20,03,34,12.00
2015,05,20,03,35,12.00
2015,05,20,03,36,11.90
2015,05,20,03,37,11.90
2015,05,20,03,38,11.90
2015,05,20,03,39,11.90
2015,05,20,03,40,11.90
2015,05,20,03,41,11.90
2015,05,20,03,42,11.90
2015,05,20,03,43,11.90
2015,05,20,03,44,11.80
2015,05,20,03,45,11.80
2015,05,20,03,46,11.80
2015,05,20,03,47,11.80
2015,05,20,03,48,11.80
2015,05,20,03,49,11.80
2015,05,20,03,50,11.80
2015,05,20,03,51,11.80
2015,05,20,03,52,11.80
2015,05,20,03,53,11.70
2015,05,20,03,54,11.70
2015,05,20,03,55,11.70
2015,05,20,03,56,11.70
2015,05,20,03,57,11.60
2015,05,20,03,58,11.60
2015,05,20,03,59,11.60
2015,05,20,04,00,11.60
2015,05,20,04,01,11.60
2015,05,20,04,02,11.60
2015,05,20,04,03,11.60
2015,05,20,04,04,11.60
2015,05,20,04,05,11.60
2015,05,20,04,06,11.60
2015,05,20,04,07,11.50
2015,05,20,04,08,11.50
2015,05,20,04,09,11.50
2015,05,20,04,10,11.50
2015,05,20,04,11,11.50
2015,05,20,04,12,11.50
2015,05,20,04,13,11.50
2015,05,20,04,14,11.50
2015,05,20,04,15,11.50
2015,05,20,04,16,11.50
2015,05,20,04,17,11.50
2015,05,20,04,18,11.50
2015,05,20,04,19,11.50
2015,05,20,04,20,11.50
2015,05,20,04,21,11.50
2015,05,20,04,22,11.40
2015,05,20,04,23,11.40
2015,05,20,04,24,11.40
2015,05,20,04,25,11.40
2015,05,20,04,26,11.40
2015,05,20,04,27,11.40
2015,05,20,04,28,11.40
2015,05,20,04,29,11.40
2015,05,20,04,30,11.40
2015,05,20,04,31,11.40
2015,05,20,04,32,11.40
2015,05,20,04,33,11.40
2015,05,20,04,34,11.40
2015,05,20,04,35,11.40
2015,05,20,04,36,11.40
2015,05,20,04,37,11.40
2015,05,20,04,38,11.40
2015,05,20,04,39,11.40
2015,05,20,04,40,11.30
2015,05,20,04,41,11.30
2015,05,20,04,42,11.30
2015,05,20,04,43,11.30
2015,05,20,04,44,11.30
2015,05,20,04,45,11.30
2015,05,20,04,46,11.30
2015,05,20,04,47,11.30
2015,05,20,04,48,11.20
2015,05,20,04,49,11.20
2015,05,20,04,50,11.20
2015,05,20,04,51,11.20
2015,05,20,04,52,11.10
2015,05,20,04,53,11.10
2015,05,20,04,54,11.10
2015,05,20,04,55,11.10
2015,05,20,04,56,11.10
2015,05,20,04,57,11.10
2015,05,20,04,58,11.10
2015,05,20,04,59,11.10
2015,05,20,05,00,11.00
2015,05,20,05,01,11.00
2015,05,20,05,02,11.00
2015,05,20,05,03,11.00
2015,05,20,05,04,11.00
2015,05,20,05,05,11.00
2015,05,20,05,06,11.00
2015,05,20,05,07,10.90
2015,05,20,05,08,10.90
2015,05,20,05,09,10.90
2015,05,20,05,10,10.90
2015,05,20,05,11,10.90
2015,05,20,05,12,10.90
2015,05,20,05,13,10.90
2015,05,20,05,14,10.90
2015,05,20,05,15,10.80
2015,05,20,05,16,10.80
2015,05,20,05,17,10.80
2015,05,20,05,18,10.80
2015,05,20,05,19,10.80
2015,05,20,05,20,10.80
2015,05,20,05,21,10.80
2015,05,20,05,22,10.80
2015,05,20,05,23,10.80
2015,05,20,05,24,10.80
2015,05,20,05,25,10.80
2015,05,20,05,26,10.80
2015,05,20,05,27,10.80
2015,05,20,05,28,10.80
2015,05,20,05,29,10.80
2015,05,20,05,30,10.70
2015,05,20,05,31,10.70
2015,05,20,05,32,10.70
2015,05,20,05,33,10.70
2015,05,20,05,34,10.70
2015,05,20,05,35,10.70
2015,05,20,05,36,10.70
2015,05,20,05,37,10.70
2015,05,20,05,38,10.70
2015,05,20,05,39,10.70
2015,05,20,05,40,10.70
2015,05,20,05,41,10.70
2015,05,20,05,42,10.70
2015,05,20,05,43,10.60
2015,05,20,05,44,10.60
2015,05,20,05,45,10.60
2015,05,20,05,46,10.60
2015,05,20,05,47,10.60
2015,05,20,05,48,10.60
2015,05,20,05,49,10.60
2015,05,20,05,50,10.60
2015,05,20,05,51,10.60
2015,05,20,05,52,10.60
2015,05,20,05,53,10.60
2015,05,20,05,54,10.60
2015,05,20,05,55,10.60
2015,05,20,05,56,10.60
2015,05,20,05,57,10.60
2015,05,20,05,58,10.60
2015,05,20,05,59,10.60
2015,05,20,06,00,10.60
2015,05,20,06,01,10.70
2015,05,20,06,02,10.70
2015,05,20,06,03,10.70
2015,05,20,06,04,10.70
2015,05,20,06,05,10.70
2015,05,20,06,06,10.80
2015,05,20,06,07,10.80
2015,05,20,06,08,10.80
2015,05,20,06,09,10.80
2015,05,20,06,10,10.80
2015,05,20,06,11,10.80
2015,05,20,06,12,10.80
2015,05,20,06,13,10.80
2015,05,20,06,14,10.80
2015,05,20,06,15,10.80
2015,05,20,06,16,10.90
2015,05,20,06,17,10.90
2015,05,20,06,18,10.90
2015,05,20,06,19,10.90
2015,05,20,06,20,10.90
2015,05,20,06,21,10.90
2015,05,20,06,22,10.90
2015,05,20,06,23,10.90
2015,05,20,06,24,10.90
2015,05,20,06,25,10.90
2015,05,20,06,26,11.00
2015,05,20,06,27,11.00
2015,05,20,06,28,11.00
2015,05,20,06,29,11.10
2015,05,20,06,30,11.10
2015,05,20,06,31,11.10
2015,05,20,06,32,11.10
2015,05,20,06,33,11.20
2015,05,20,06,34,11.20
2015,05,20,06,35,11.20
2015,05,20,06,36,11.20
2015,05,20,06,37,11.30
2015,05,20,06,38,11.30
2015,05,20,06,39,11.30
2015,05,20,06,40,11.30
2015,05,20,06,41,11.40
2015,05,20,06,42,11.40
2015,05,20,06,43,11.40
2015,05,20,06,44,11.50
2015,05,20,06,45,11.50
2015,05,20,06,46,11.60
2015,05,20,06,47,11.60
2015,05,20,06,48,11.60
2015,05,20,06,49,11.70
2015,05,20,06,50,11.70
2015,05,20,06,51,11.80
2015,05,20,06,52,11.80
2015,05,20,06,53,11.80
2015,05,20,06,54,11.90
2015,05,20,06,55,11.90
2015,05,20,06,56,11.90
2015,05,20,06,57,12.00
2015,05,20,06,58,12.00
2015,05,20,06,59,12.10
2015,05,20,07,00,12.10
2015,05,20,07,01,12.20
2015,05,20,07,02,12.20
2015,05,20,07,03,12.20
2015,05,20,07,04,12.30
2015,05,20,07,05,12.30
2015,05,20,07,06,12.30
2015,05,20,07,07,12.30
2015,05,20,07,08,12.30
2015,05,20,07,09,12.30
2015,05,20,07,10,12.40
2015,05,20,07,11,12.40
2015,05,20,07,12,12.40
2015,05,20,07,13,12.40
2015,05,20,07,14,12.50
2015,05,20,07,15,12.50
2015,05,20,07,16,12.50
2015,05,20,07,17,12.60
2015,05,20,07,18,12.60
2015,05,20,07,19,12.60
2015,05,20,07,20,12.60
2015,05,20,07,21,12.60
2015,05,20,07,22,12.70
2015,05,20,07,23,12.70
2015,05,20,07,24,12.70
2015,05,20,07,25,12.70
2015,05,20,07,26,12.70
2015,05,20,07,27,12.80
2015,05,20,07,28,12.80
2015,05,20,07,29,12.80
2015,05,20,07,30,12.80
2015,05,20,07,31,12.80
2015,05,20,07,32,12.90
2015,05,20,07,33,12.90
2015,05,20,07,34,12.90
2015,05,20,07,35,12.90
2015,05,20,07,36,13.00
2015,05,20,07,37,13.00
2015,05,20,07,38,13.00
2015,05,20,07,39,13.10
2015,05,20,07,40,13.10
2015,05,20,07,41,13.20
2015,05,20,07,42,13.20
2015,05,20,07,43,13.30
2015,05,20,07,44,13.30
2015,05,20,07,45,13.30
2015,05,20,07,46,13.30
2015,05,20,07,47,13.30
2015,05,20,07,48,13.30
2015,05,20,07,49,13.40
2015,05,20,07,50,13.40
2015,05,20,07,51,13.40
2015,05,20,07,52,13.40
2015,05,20,07,53,13.40
2015,05,20,07,54,13.40
2015,05,20,07,55,13.40
2015,05,20,07,56,13.40
2015,05,20,07,57,13.50
2015,05,20,07,58,13.50
2015,05,20,07,59,13.50
2015,05,20,08,00,13.50
2015,05,20,08,01,13.50
2015,05,20,08,02,13.60
2015,05,20,08,03,13.60
2015,05,20,08,04,13.70
2015,05,20,08,05,13.70
2015,05,20,08,06,13.80
2015,05,20,08,07,13.80
2015,05,20,08,08,13.80
2015,05,20,08,09,13.90
2015,05,20,08,10,13.90
2015,05,20,08,11,14.00
2015,05,20,08,12,14.00
2015,05,20,08,13,14.10
2015,05,20,08,14,14.20
2015,05,20,08,15,14.20
2015,05,20,08,16,14.30
2015,05,20,08,17,14.30
2015,05,20,08,18,14.30
2015,05,20,08,19,14.40
2015,05,20,08,20,14.40
2015,05,20,08,21,14.40
2015,05,20,08,22,14.50
2015,05,20,08,23,14.50
2015,05,20,08,24,14.50
2015,05,20,08,25,14.60
2015,05,20,08,26,14.60
2015,05,20,08,27,14.60
2015,05,20,08,28,14.60
2015,05,20,08,29,14.60
2015,05,20,08,30,14.60
2015,05,20,08,31,14.70
2015,05,20,08,32,14.70
2015,05,20,08,33,14.70
2015,05,20,08,34,14.80
2015,05,20,08,35,14.80
2015,05,20,08,36,14.90
2015,05,20,08,37,15.00
2015,05,20,08,38,15.00
2015,05,20,08,39,15.10
2015,05,20,08,40,15.10
2015,05,20,08,41,15.10
2015,05,20,08,42,15.10
2015,05,20,08,43,15.20
2015,05,20,08,44,15.20
2015,05,20,08,45,15.30
2015,05,20,08,46,15.30
2015,05,20,08,47,15.30
2015,05,20,08,48,15.40
2015,05,20,08,49,15.40
2015,05,20,08,50,15.40
2015,05,20,08,51,15.40
2015,05,20,08,52,15.50
2015,05,20,08,53,15.50
2015,05,20,08,54,15.50
2015,05,20,08,55,15.60
2015,05,20,08,56,15.60
2015,05,20,08,57,15.60
2015,05,20,08,58,15.60
2015,05,20,08,59,15.60
2015,05,20,09,00,15.60
2015,05,20,09,01,15.60
2015,05,20,09,02,15.60
2015,05,20,09,03,15.70
2015,05,20,09,04,15.70
2015,05,20,09,05,15.70
2015,05,20,09,06,15.70
2015,05,20,09,07,15.80
2015,05,20,09,08,15.90
2015,05,20,09,09,15.90
2015,05,20,09,10,16.00
2015,05,20,09,11,16.10
2015,05,20,09,12,16.10
2015,05,20,09,13,16.20
2015,05,20,09,14,16.30
2015,05,20,09,15,16.30
2015,05,20,09,16,16.40
2015,05,20,09,17,16.50
2015,05,20,09,18,16.50
2015,05,20,09,19,16.60
2015,05,20,09,20,16.60
2015,05,20,09,21,16.60
2015,05,20,09,22,16.60
2015,05,20,09,23,16.70
2015,05,20,09,24,16.70
2015,05,20,09,25,16.80
2015,05,20,09,26,16.90
2015,05,20,09,27,17.00
2015,05,20,09,28,17.00
2015,05,20,09,29,17.10
2015,05,20,09,30,17.10
2015,05,20,09,31,17.10
2015,05,20,09,32,17.10
2015,05,20,09,33,17.10
2015,05,20,09,34,17.10
2015,05,20,09,35,17.20
2015,05,20,09,36,17.20
2015,05,20,09,37,17.20
2015,05,20,09,38,17.20
2015,05,20,09,39,17.20
2015,05,20,09,40,17.20
2015,05,20,09,41,17.30
2015,05,20,09,42,17.30
2015,05,20,09,43,17.40
2015,05,20,09,44,17.40
2015,05,20,09,45,17.40
2015,05,20,09,46,17.50
2015,05,20,09,47,17.60
2015,05,20,09,48,17.60
2015,05,20,09,49,17.60
2015,05,20,09,50,17.70
2015,05,20,09,51,17.70
2015,05,20,09,52,17.70
2015,05,20,09,53,17.70
2015,05,20,09,54,17.70
2015,05,20,09,55,17.70
2015,05,20,09,56,17.70
2015,05,20,09,57,17.80
2015,05,20,09,58,17.80
2015,05,20,09,59,17.80
2015,05,20,10,00,17.90
2015,05,20,10,01,18.00
2015,05,20,10,02,18.00
2015,05,20,10,03,18.00
2015,05,20,10,04,18.00
2015,05,20,10,05,18.00
2015,05,20,10,06,18.00
2015,05,20,10,07,18.10
2015,05,20,10,08,18.10
2015,05,20,10,09,18.00
2015,05,20,10,10,18.00
2015,05,20,10,11,18.10
2015,05,20,10,12,18.10
2015,05,20,10,13,18.20
2015,05,20,10,14,18.20
2015,05,20,10,15,18.20
2015,05,20,10,16,18.20
2015,05,20,10,17,18.30
2015,05,20,10,18,18.40
2015,05,20,10,19,18.50
2015,05,20,10,20,18.60
2015,05,20,10,21,18.60
2015,05,20,10,22,18.70
2015,05,20,10,23,18.80
2015,05,20,10,24,18.80
2015,05,20,10,25,18.80
2015,05,20,10,26,18.70
2015,05,20,10,27,18.70
2015,05,20,10,28,18.70
2015,05,20,10,29,18.80
2015,05,20,10,30,18.80
2015,05,20,10,31,18.80
2015,05,20,10,32,18.90
2015,05,20,10,33,18.90
2015,05,20,10,34,18.90
2015,05,20,10,35,18.90
2015,05,20,10,36,18.90
2015,05,20,10,37,18.90
2015,05,20,10,38,18.90
2015,05,20,10,39,18.90
2015,05,20,10,40,18.90
2015,05,20,10,41,18.90
2015,05,20,10,42,18.90
2015,05,20,10,43,19.00
2015,05,20,10,44,19.00
2015,05,20,10,45,19.10
2015,05,20,10,46,19.10
2015,05,20,10,47,19.10
2015,05,20,10,48,19.10
2015,05,20,10,49,19.10
2015,05,20,10,50,19.20
2015,05,20,10,51,19.20
2015,05,20,10,52,19.20
2015,05,20,10,53,19.30
2015,05,20,10,54,19.30
2015,05,20,10,55,19.40
2015,05,20,10,56,19.50
2015,05,20,10,57,19.60
2015,05,20,10,58,19.60
2015,05,20,10,59,19.70
2015,05,20,11,00,19.70
2015,05,20,11,01,19.70
2015,05,20,11,02,19.70
2015,05,20,11,03,19.70
2015,05,20,11,04,19.80
2015,05,20,11,05,19.80
2015,05,20,11,06,19.90
2015,05,20,11,07,19.90
2015,05,20,11,08,19.90
2015,05,20,11,09,19.90
2015,05,20,11,10,20.00
2015,05,20,11,11,20.00
2015,05,20,11,12,20.10
2015,05,20,11,13,20.20
2015,05,20,11,14,20.20
2015,05,20,11,15,20.30
2015,05,20,11,16,20.30
2015,05,20,11,17,20.30
2015,05,20,11,18,20.30
2015,05,20,11,19,20.30
2015,05,20,11,20,20.30
2015,05,20,11,21,20.30
2015,05,20,11,22,20.30
2015,05,20,11,23,20.30
2015,05,20,11,24,20.30
2015,05,20,11,25,20.30
2015,05,20,11,26,20.40
2015,05,20,11,27,20.40
2015,05,20,11,28,20.50
2015,05,20,11,29,20.50
2015,05,20,11,30,20.60
2015,05,20,11,31,20.70
2015,05,20,11,32,20.80
2015,05,20,11,33,20.80
2015,05,20,11,34,20.80
2015,05,20,11,35,20.80
2015,05,20,11,36,20.80
2015,05,20,11,37,20.70
2015,05,20,11,38,20.70
2015,05,20,11,39,20.70
2015,05,20,11,40,20.70
2015,05,20,11,41,20.70
2015,05,20,11,42,20.80
2015,05,20,11,43,20.80
2015,05,20,11,44,20.90
2015,05,20,11,45,20.90
2015,05,20,11,46,21.00
2015,05,20,11,47,21.20
2015,05,20,11,48,21.30
2015,05,20,11,49,21.40
2015,05,20,11,50,21.40
2015,05,20,11,51,21.40
2015,05,20,11,52,21.50
2015,05,20,11,53,21.60
2015,05,20,11,54,21.70
2015,05,20,11,55,21.70
2015,05,20,11,56,21.70
2015,05,20,11,57,21.70
2015,05,20,11,58,21.80
2015,05,20,11,59,21.80
2015,05,20,12,00,21.90
2015,05,20,12,01,22.00
2015,05,20,12,02,22.00
2015,05,20,12,03,22.00
2015,05,20,12,04,21.90
2015,05,20,12,05,21.90
2015,05,20,12,06,21.90
2015,05,20,12,07,21.80
2015,05,20,12,08,21.80
2015,05,20,12,09,21.80
2015,05,20,12,10,21.70
2015,05,20,12,11,21.70
2015,05,20,12,12,21.60
2015,05,20,12,13,21.50
2015,05,20,12,14,21.40
2015,05,20,12,15,21.40
2015,05,20,12,16,21.40
2015,05,20,12,17,21.50
2015,05,20,12,18,21.50
2015,05,20,12,19,21.60
2015,05,20,12,20,21.70
2015,05,20,12,21,21.80
2015,05,20,12,22,21.80
2015,05,20,12,23,21.80
2015,05,20,12,24,21.80
2015,05,20,12,25,21.80
2015,05,20,12,26,21.90
2015,05,20,12,27,22.00
2015,05,20,12,28,22.00
2015,05,20,12,29,22.10
2015,05,20,12,30,22.10
2015,05,20,12,31,22.20
2015,05,20,12,32,22.20
2015,05,20,12,33,22.30
2015,05,20,12,34,22.30
2015,05,20,12,35,22.30
2015,05,20,12,36,22.30
2015,05,20,12,37,22.30
2015,05,20,12,38,22.30
2015,05,20,12,39,22.30
2015,05,20,12,40,22.30
2015,05,20,12,41,22.40
2015,05,20,12,42,22.40
2015,05,20,12,43,22.50
2015,05,20,12,44,22.50
2015,05,20,12,45,22.60
2015,05,20,12,46,22.70
2015,05,20,12,47,22.70
2015,05,20,12,48,22.80
2015,05,20,12,49,22.80
2015,05,20,12,50,22.80
2015,05,20,12,51,22.80
2015,05,20,12,52,22.80
2015,05,20,12,53,22.80
2015,05,20,12,54,22.90
2015,05,20,12,55,22.90
2015,05,20,12,56,23.00
2015,05,20,12,57,23.10
2015,05,20,12,58,23.10
2015,05,20,12,59,23.10
2015,05,20,13,00,23.10
2015,05,20,13,01,23.10
2015,05,20,13,02,23.10
2015,05,20,13,03,23.10
2015,05,20,13,04,23.10
2015,05,20,13,05,23.10
2015,05,20,13,06,23.10
2015,05,20,13,07,23.20
2015,05,20,13,08,23.20
2015,05,20,13,09,23.20
2015,05,20,13,10,23.20
2015,05,20,13,11,23.30
2015,05,20,13,12,23.30
2015,05,20,13,13,23.40
2015,05,20,13,14,23.40
2015,05,20,13,15,23.40
2015,05,20,13,16,23.40
2015,05,20,13,17,23.50
2015,05,20,13,18,23.50
2015,05,20,13,19,23.60
2015,05,20,13,20,23.70
2015,05,20,13,21,23.80
2015,05,20,13,22,23.80
2015,05,20,13,23,23.80
2015,05,20,13,24,23.80
2015,05,20,13,25,23.80
2015,05,20,13,26,23.80
2015,05,20,13,27,23.80
2015,05,20,13,28,23.80
2015,05,20,13,29,23.80
2015,05,20,13,30,23.80
2015,05,20,13,31,23.70
2015,05,20,13,32,23.70
2015,05,20,13,33,23.60
2015,05,20,13,34,23.50
2015,05,20,13,35,23.40
2015,05,20,13,36,23.30
2015,05,20,13,37,23.30
2015,05,20,13,38,23.20
2015,05,20,13,39,23.10
2015,05,20,13,40,22.90
2015,05,20,13,41,22.80
2015,05,20,13,42,22.60
2015,05,20,13,43,22.50
2015,05,20,13,44,22.40
2015,05,20,13,45,22.40
2015,05,20,13,46,22.40
2015,05,20,13,47,22.40
2015,05,20,13,48,22.50
2015,05,20,13,49,22.60
2015,05,20,13,50,22.60
2015,05,20,13,51,22.60
2015,05,20,13,52,22.50
2015,05,20,13,53,22.50
2015,05,20,13,54,22.40
2015,05,20,13,55,22.30
2015,05,20,13,56,22.30
2015,05,20,13,57,22.20
2015,05,20,13,58,22.20
2015,05,20,13,59,22.20
2015,05,20,14,00,22.10
2015,05,20,14,01,22.10
2015,05,20,14,02,22.10
2015,05,20,14,03,22.20
2015,05,20,14,04,22.30
2015,05,20,14,05,22.30
2015,05,20,14,06,22.40
2015,05,20,14,07,22.50
2015,05,20,14,08,22.60
2015,05,20,14,09,22.60
2015,05,20,14,10,22.70
2015,05,20,14,11,22.70
2015,05,20,14,12,22.70
2015,05,20,14,13,22.80
2015,05,20,14,14,22.90
2015,05,20,14,15,22.90
2015,05,20,14,16,23.00
2015,05,20,14,17,23.10
2015,05,20,14,18,23.10
2015,05,20,14,19,23.10
2015,05,20,14,20,23.20
2015,05,20,14,21,23.30
2015,05,20,14,22,23.30
2015,05,20,14,23,23.30
2015,05,20,14,24,23.40
2015,05,20,14,25,23.50
2015,05,20,14,26,23.60
2015,05,20,14,27,23.70
2015,05,20,14,28,23.80
2015,05,20,14,29,23.90
2015,05,20,14,30,24.00
2015,05,20,14,31,24.10
2015,05,20,14,32,24.10
2015,05,20,14,33,24.10
2015,05,20,14,34,24.10
2015,05,20,14,35,24.10
2015,05,20,14,36,24.10
2015,05,20,14,37,24.20
2015,05,20,14,38,24.10
2015,05,20,14,39,24.00
2015,05,20,14,40,24.00
2015,05,20,14,41,23.90
2015,05,20,14,42,23.90
2015,05,20,14,43,23.90
2015,05,20,14,44,24.00
2015,05,20,14,45,24.10
2015,05,20,14,46,24.20
2015,05,20,14,47,24.30
2015,05,20,14,48,24.40
2015,05,20,14,49,24.50
2015,05,20,14,50,24.60
2015,05,20,14,51,24.60
2015,05,20,14,52,24.70
2015,05,20,14,53,24.80
2015,05,20,14,54,25.00
2015,05,20,14,55,25.10
2015,05,20,14,56,25.20
2015,05,20,14,57,25.30
2015,05,20,14,58,25.30
2015,05,20,14,59,25.30
2015,05,20,15,00,25.30
2015,05,20,15,01,25.30
2015,05,20,15,02,25.30
2015,05,20,15,03,25.30
2015,05,20,15,04,25.30
2015,05,20,15,05,25.30
2015,05,20,15,06,25.30
2015,05,20,15,07,25.40
2015,05,20,15,08,25.40
2015,05,20,15,09,25.50
2015,05,20,15,10,25.60
2015,05,20,15,11,25.60
2015,05,20,15,12,25.70
2015,05,20,15,13,25.70
2015,05,20,15,14,25.80
2015,05,20,15,15,25.80
2015,05,20,15,16,25.90
2015,05,20,15,17,25.80
2015,05,20,15,18,25.70
2015,05,20,15,19,25.50
2015,05,20,15,20,25.40
2015,05,20,15,21,25.30
2015,05,20,15,22,25.20
2015,05,20,15,23,25.20
2015,05,20,15,24,25.10
2015,05,20,15,25,25.00
2015,05,20,15,26,24.90
2015,05,20,15,27,24.80
2015,05,20,15,28,24.80
2015,05,20,15,29,24.60
2015,05,20,15,30,24.50
2015,05,20,15,31,24.30
2015,05,20,15,32,24.20
2015,05,20,15,33,24.20
2015,05,20,15,34,24.20
2015,05,20,15,35,24.30
2015,05,20,15,36,24.30
2015,05,20,15,37,24.20
2015,05,20,15,38,24.00
2015,05,20,15,39,23.90
2015,05,20,15,40,23.70
2015,05,20,15,41,23.60
2015,05,20,15,42,23.40
2015,05,20,15,43,23.40
2015,05,20,15,44,23.30
2015,05,20,15,45,23.20
2015,05,20,15,46,23.10
2015,05,20,15,47,23.00
2015,05,20,15,48,23.00
2015,05,20,15,49,23.00
2015,05,20,15,50,23.10
2015,05,20,15,51,23.20
2015,05,20,15,52,23.20
2015,05,20,15,53,23.30
2015,05,20,15,54,23.40
2015,05,20,15,55,23.50
2015,05,20,15,56,23.60
2015,05,20,15,57,23.60
2015,05,20,15,58,23.70
2015,05,20,15,59,23.70
2015,05,20,16,00,23.80
2015,05,20,16,01,23.80
2015,05,20,16,02,23.90
2015,05,20,16,03,24.00
2015,05,20,16,04,24.20
2015,05,20,16,05,24.30
2015,05,20,16,06,24.40
2015,05,20,16,07,24.60
2015,05,20,16,08,24.70
2015,05,20,16,09,24.80
2015,05,20,16,10,25.00
2015,05,20,16,11,25.10
2015,05,20,16,12,25.20
2015,05,20,16,13,25.20
2015,05,20,16,14,25.20
2015,05,20,16,15,25.30
2015,05,20,16,16,25.30
2015,05,20,16,17,25.40
2015,05,20,16,18,25.40
2015,05,20,16,19,25.50
2015,05,20,16,20,25.60
2015,05,20,16,21,25.60
2015,05,20,16,22,25.70
2015,05,20,16,23,25.70
2015,05,20,16,24,25.80
2015,05,20,16,25,25.80
2015,05,20,16,26,25.90
2015,05,20,16,27,25.90
2015,05,20,16,28,25.90
2015,05,20,16,29,25.90
2015,05,20,16,30,25.80
2015,05,20,16,31,25.50
2015,05,20,16,32,25.10
2015,05,20,16,33,24.80
2015,05,20,16,34,24.50
2015,05,20,16,35,24.20
2015,05,20,16,36,24.00
2015,05,20,16,37,23.70
2015,05,20,16,38,23.50
2015,05,20,16,39,23.30
2015,05,20,16,40,23.00
2015,05,20,16,41,22.80
2015,05,20,16,42,22.60
2015,05,20,16,43,22.50
2015,05,20,16,44,22.50
2015,05,20,16,45,22.40
2015,05,20,16,46,22.40
2015,05,20,16,47,22.40
2015,05,20,16,48,22.40
2015,05,20,16,49,22.40
2015,05,20,16,50,22.30
2015,05,20,16,51,22.30
2015,05,20,16,52,22.30
2015,05,20,16,53,22.30
2015,05,20,16,54,22.30
2015,05,20,16,55,22.30
2015,05,20,16,56,22.30
2015,05,20,16,57,22.30
2015,05,20,16,58,22.30
2015,05,20,16,59,22.40
2015,05,20,17,00,22.40
2015,05,20,17,01,22.50
2015,05,20,17,02,22.60
2015,05,20,17,03,22.70
2015,05,20,17,04,22.70
2015,05,20,17,05,22.60
2015,05,20,17,06,22.60
2015,05,20,17,07,22.60
2015,05,20,17,08,22.50
2015,05,20,17,09,22.50
2015,05,20,17,10,22.40
2015,05,20,17,11,22.40
2015,05,20,17,12,22.40
2015,05,20,17,13,22.40
2015,05,20,17,14,22.40
2015,05,20,17,15,22.40
2015,05,20,17,16,22.40
2015,05,20,17,17,22.50
2015,05,20,17,18,22.50
2015,05,20,17,19,22.60